Lubbock Preston Smith International Airport Lubbock US
ICAO: KLBB
IATA: LBB
Category: Large
Scheduled Services: Yes

Elevation: 3282 ft
TransAlt. 18000 ft.

Airport Communications:
APP:119.2
ATIS:125.3
CLNC DEL:125.8
DEP:119.2
GND:121.9
FORT WORTH RDO:122.55
TWR:120.5
UNICOM:122.95

KLBB Zoom In..

Runways:

(A) RW 08 length 8003 ft width 150 ft
---- / hdg 81

(B) RW 17L length 2891 ft width 75 ft
---- / hdg 171

(C) RW 17R length 11500 ft width 150 ft
ILS 111.70 / hdg 171

(D) RW 26 length 8003 ft width 150 ft
ILS 111.90 / hdg 261

(E) RW 35L length 11500 ft width 150 ft
---- / hdg 351

(F) RW 35R length 2891 ft width 75 ft
---- / hdg 351

Location; KLBB
Day. 30 / Time. 22.53 Zulu
* Altimeter: 30.23
* Temperature: 11° c. 51.8°f.
* Wind from: 230° Speed 12 kn.
Dewpoint: -10° c.
Visibility: 10 Statute Miles.
Clouds: Clear (automated report).

KLBB 302253Z 23012KT 10SM CLR 11/M10 A3023 RMK AO2 SLP241 T01061100

Going to: --> -->


Wind From 230°
Speed 12 kn.

 
 
jpsmedia worldairports.se 2020   terms of use